Knoxville Regional Airport (TYS)

 

Airport Diagram
Current Weather/Forecast (VFR Conditions)
METAR KTYS 260253Z 07003KT 10SM FEW005 FEW020 OVC046 18/18 A3002 RMK AO2 SLP159 T01830183 51009
TAF KTYS 260220Z 2602/2624 00000KT P6SM SCT015 BKN040 FM260900 00000KT 1 1/2SM BR BKN004 TEMPO 2609/2613 1/4SM FG OVC003 FM261330 00000KT 5SM BR BKN006 FM261600 00000KT P6SM SCT023

All Charts
General
Chart Name Download
AIRPORT DIAGRAM
TAKEOFF MINIMUMS
ALTERNATE MINIMUMS
RADAR MINIMUMS
HOT SPOT

Departures
Chart Name Download
KNOXVILLE SIX

Approaches
Chart Name Download
HI-ILS OR LOC RWY 05L
HI-ILS OR LOC RWY 23L
HI-ILS OR LOC RWY 23R
ILS OR LOC RWY 05L
ILS OR LOC RWY 23L
ILS OR LOC RWY 23R
ILS RWY 23R (SA CAT I)
ILS RWY 23R (CAT II)
RNAV (GPS) RWY 05L
RNAV (GPS) RWY 05R
RNAV (GPS) RWY 23L
RNAV (GPS) RWY 23R
HI-VOR/DME OR TACAN RWY 05L
HI-VOR/DME OR TACAN RWY 23R
VOR RWY 23L
VOR RWY 23R


Inbound Traffic (Arrivals)

No inbound traffic.


Outbound Traffic (Departures)

No outbound traffic.